[[{"header":{"parameterUnit":"m.s-1","parameterCategory":1,"la1":30.2991,"la2":30.254,"lo1":-89.0895,"lo2":-89.0444,"dy":0.0017,"dx":0.0017,"nx":28,"ny":28,"refTime":"2023-04-06T21:00:00:Z","depth":0,"parameterNumber":2,"parameterNumberName":"U-component_of_WINDS"},"data":[0,0,0,0,0,0,0,0,0,0,0,0,0,0,0,0,0,0,0,0,0,0,0,0,0,0,0,0,0,0,0,0,0,0,0,0,0,0,0,0,0,0,0,0,0,0,0,0,0,0,0,0,0,0,0,0,0,0,-3.2388,-3.2388,0,-3.2373,-3.2373,-3.2373,-3.233,-3.2329,-3.2328,-3.2327,-3.2313,-3.2314,-3.2314,0,0,0,0,0,0,0,0,0,0,0,0,0,-3.2379,-3.2379,-3.2388,-3.2388,-3.2388,-3.2373,-3.2373,-3.2373,-3.233,-3.2329,-3.2328,-3.2326,-3.2313,-3.2314,-3.2314,0,0,0,0,0,0,0,0,0,0,0,0,0,-3.2376,-3.2379,-3.2388,-3.2364,-3.2362,-3.2374,-3.2373,-3.2373,-3.233,-3.2329,-3.2327,-3.2326,-3.2313,-3.2314,-3.2314,-3.2348,0,0,-3.2317,-3.2317,0,0,0,0,0,0,0,0,-3.2376,-3.2376,-3.2368,-3.2366,-3.2363,-3.2352,-3.2365,-3.2365,-3.233,-3.2342,-3.2327,-3.2325,-3.2327,-3.2327,-3.2327,-3.2347,-3.2347,-3.2317,-3.2317,-3.2318,-3.2318,0,0,0,0,0,0,0,-3.2376,-3.2376,-3.2382,-3.2368,-3.2365,-3.2355,-3.2353,-3.2365,-3.2343,-3.2341,-3.2338,-3.2337,-3.2326,-3.2327,-3.2327,-3.2347,-3.2317,-3.2318,-3.2318,-3.2318,-3.2393,-3.2394,0,0,0,0,0,0,-3.238,-3.2377,-3.2383,-3.2382,-3.2366,-3.2356,-3.2354,-3.2357,-3.2343,-3.2339,-3.2338,-3.2335,-3.2326,-3.2326,-3.2326,-3.2363,-3.2318,-3.2318,-3.2319,-3.2391,-3.2393,-3.2395,0,0,0,0,0,0,-3.238,-3.2381,-3.2383,-3.2378,-3.2378,-3.2358,-3.2362,-3.2358,-3.2358,-3.234,-3.2336,-3.2343,-3.2325,-3.2325,-3.2343,-3.2362,-3.2319,-3.2319,-3.2389,-3.2392,-3.2394,-3.2439,0,0,0,0,0,0,-3.2379,-3.2381,-3.2393,-3.2379,-3.2378,-3.24,-3.2363,-3.2358,-3.236,-3.2355,-3.2344,-3.2341,-3.2324,-3.2342,-3.2343,-3.2363,-3.232,-3.2388,-3.239,-3.2393,-3.2436,-3.2443,-3.2449,0,0,0,0,0,-3.2379,-3.2407,-3.2394,-3.2395,-3.2393,-3.2401,-3.2401,-3.238,-3.2361,-3.2374,-3.2362,-3.2341,-3.236,-3.2344,-3.2345,-3.2365,-3.2386,-3.239,-3.2393,-3.2433,-3.2441,-3.2448,0,0,0,0,0,0,-3.2424,-3.2404,-3.239,-3.2414,-3.2409,-3.2394,-3.2408,-3.239,-3.2391,-3.2387,-3.2363,-3.236,-3.2381,-3.2375,-3.2357,-3.2397,-3.237,-3.2374,-3.2399,-3.2407,-3.2414,-3.2414,-3.2321,0,0,0,0,0,-3.2437,-3.2444,-3.2427,-3.245,-3.2448,-3.2429,-3.2432,-3.2416,-3.2411,-3.2409,-3.2399,-3.2395,-3.24,-3.2403,-3.2407,-3.2435,-3.2432,-3.245,-3.2456,-3.2462,-3.2465,-3.2478,-3.2486,-3.2406,-3.2406,-3.2406,0,0,-3.2463,-3.2453,-3.2459,-3.2458,-3.2453,-3.2462,-3.2428,-3.2438,-3.2444,-3.2411,-3.2426,-3.2419,-3.2413,-3.2435,-3.2445,-3.2431,-3.2486,-3.2466,-3.247,-3.247,-3.2482,-3.249,-3.2497,-3.2408,-3.2408,-3.2407,0,0,-3.2514,-3.2508,-3.2525,-3.2521,-3.2513,-3.2501,-3.2505,-3.2492,-3.2486,-3.2501,-3.2476,-3.2483,-3.2493,-3.2489,-3.2488,-3.2539,-3.2519,-3.2541,-3.2574,-3.2587,-3.2593,-3.2599,-3.2616,-3.2622,-3.2545,-3.2545,-3.2545,0,-3.2547,-3.2559,-3.2537,-3.2549,-3.2549,-3.2519,-3.2537,-3.2534,-3.2528,-3.2529,-3.2513,-3.2524,-3.2518,-3.2539,-3.2551,-3.2552,-3.2556,-3.2541,-3.2594,-3.26,-3.2604,-3.262,-3.2627,-3.2547,-3.2547,-3.2547,-3.2546,0,-3.2599,-3.2608,-3.2623,-3.2618,-3.262,-3.2635,-3.2615,-3.262,-3.2605,-3.2594,-3.261,-3.2602,-3.2603,-3.2607,-3.2593,-3.2626,-3.2617,-3.2599,-3.2571,-3.2615,-3.2629,-3.2635,-3.2551,-3.255,-3.2549,-3.2549,0,0,-3.2677,-3.266,-3.2666,-3.2663,-3.2652,-3.2658,-3.2672,-3.2673,-3.2677,-3.2675,-3.2685,-3.2694,-3.2676,-3.2676,-3.2661,-3.2673,-3.2712,-3.2653,-3.2652,-3.2663,-3.2747,-3.276,-3.2767,-3.27,-3.2701,-3.2702,-3.2747,0,-3.2725,-3.2746,-3.2727,-3.2752,-3.2759,-3.2732,-3.2743,-3.2738,-3.2729,-3.2734,-3.2723,-3.2729,-3.2706,-3.2705,-3.2716,-3.2705,-3.2729,-3.2702,-3.2708,-3.2709,-3.2709,-3.2775,-3.2789,-3.2832,-3.2753,-3.2754,-3.2754,0,-3.2783,-3.2782,-3.2808,-3.2795,-3.2798,-3.2808,-3.2807,-3.2813,-3.2807,-3.2799,-3.2798,-3.278,-3.2793,-3.2767,-3.2783,-3.2766,-3.2767,-3.2763,-3.2764,-3.2762,-3.2733,-3.2774,-3.2845,-3.2851,-3.2763,-3.2763,-3.2762,0,-3.2835,-3.2841,-3.2857,-3.2855,-3.2842,-3.285,-3.2845,-3.2837,-3.2839,-3.2838,-3.2839,-3.284,-3.2841,-3.2842,-3.2825,-3.2808,-3.2843,-3.2816,-3.2837,-3.2837,-3.2844,-3.2843,-3.2915,-3.2848,-3.2848,-3.2848,-3.2848,0,-3.2889,-3.2906,-3.288,-3.289,-3.2907,-3.2886,-3.2904,-3.2896,-3.289,-3.2897,-3.2874,-3.2882,-3.2859,-3.2865,-3.2852,-3.2867,-3.2868,-3.2861,-3.2857,-3.2862,-3.2863,-3.2862,-3.2858,-3.285,-3.2849,-3.2849,-3.2849,0,-3.295,-3.2934,-3.2949,-3.2935,-3.2932,-3.2945,-3.2933,-3.2941,-3.293,-3.294,-3.2941,-3.2924,-3.2929,-3.2913,-3.2915,-3.2906,-3.2928,-3.292,-3.293,-3.2927,-3.2948,-3.2945,-3.302,-3.3028,-3.2957,-3.2958,-3.2959,0,-3.2985,-3.2997,-3.2984,-3.2987,-3.2983,-3.2989,-3.299,-3.297,-3.2972,-3.2966,-3.2975,-3.2978,-3.2979,-3.2989,-3.2977,-3.2979,-3.2969,-3.2995,-3.2969,-3.2974,-3.2968,-3.2967,-3.2967,-3.3,-3.3001,-3.3002,-3.3002,0,-3.3048,-3.3039,-3.3042,-3.3042,-3.3044,-3.3043,-3.304,-3.3044,-3.3022,-3.3026,-3.3031,-3.3032,-3.3034,-3.3037,-3.3037,-3.3031,-3.3013,-3.3011,-3.3015,-3.302,-3.3025,-3.3021,-3.2943,-3.3009,-3.3008,-3.3008,-3.3007,-3.3007,-3.3096,-3.3105,-3.3097,-3.31,-3.3096,-3.3094,-3.3101,-3.3091,-3.3094,-3.3094,-3.3082,-3.3089,-3.3083,-3.308,-3.3077,-3.3082,-3.307,-3.3077,-3.3078,-3.308,-3.3082,-3.3025,-3.3082,-3.3082,-3.3081,-3.3081,-3.3081,0,-3.3157,-3.315,-3.3154,-3.315,-3.3153,-3.3136,-3.3132,-3.3135,-3.3142,-3.3137,-3.3139,-3.3144,-3.3147,-3.3135,-3.3136,-3.3143,-3.3135,-3.3144,-3.3142,-3.3141,-3.3094,-3.3089,-3.315,-3.315,-3.315,-3.315,-3.315,-3.315,-3.3189,-3.3202,-3.3193,-3.3204,-3.3198,-3.3204,-3.3203,-3.3201,-3.3197,-3.3204,-3.3206,-3.3198,-3.319,-3.3191,-3.3193,-3.3189,-3.319,-3.3202,-3.3196,-3.3152,-3.3145,-3.3138,-3.3133,-3.3203,-3.3203,-3.3242,-3.3243,-3.3243]},{"header":{"parameterUnit":"m.s-1","parameterCategory":1,"la1":30.2991,"la2":30.254,"lo1":-89.0895,"lo2":-89.0444,"dy":0.0017,"dx":0.0017,"nx":28,"ny":28,"refTime":"2023-04-06T21:00:00:Z","depth":0,"parameterNumber":3,"parameterNumberName":"V-component_of_WINDS"},"data":[0,0,0,0,0,0,0,0,0,0,0,0,0,0,0,0,0,0,0,0,0,0,0,0,0,0,0,0,0,0,0,0,0,0,0,0,0,0,0,0,0,0,0,0,0,0,0,0,0,0,0,0,0,0,0,0,0,0,3.4669,3.4669,0,3.4683,3.4683,3.4684,3.4645,3.4644,3.4643,3.4641,3.4657,3.4658,3.466,0,0,0,0,0,0,0,0,0,0,0,0,0,3.4609,3.4611,3.4669,3.4669,3.4669,3.4683,3.4683,3.4684,3.4645,3.4644,3.4642,3.4641,3.4656,3.4658,3.466,0,0,0,0,0,0,0,0,0,0,0,0,0,3.4631,3.4611,3.4669,3.4652,3.465,3.4683,3.4683,3.4684,3.4645,3.4644,3.4642,3.464,3.4656,3.4658,3.466,3.4711,0,0,3.4667,3.4668,0,0,0,0,0,0,0,0,3.463,3.4633,3.4654,3.4653,3.4651,3.466,3.4668,3.4693,3.4646,3.4647,3.4641,3.4639,3.466,3.4661,3.4668,3.4711,3.4712,3.4667,3.4669,3.467,3.467,0,0,0,0,0,0,0,3.4628,3.4632,3.4674,3.4654,3.4653,3.4644,3.4645,3.4673,3.4663,3.4647,3.4644,3.4647,3.4658,3.4666,3.4668,3.4712,3.4667,3.4669,3.4671,3.4672,3.48,3.4802,0,0,0,0,0,0,3.4629,3.4631,3.4674,3.4675,3.4636,3.4646,3.4647,3.4659,3.4663,3.4662,3.4648,3.4645,3.4663,3.4666,3.4669,3.4729,3.467,3.4672,3.4673,3.4798,3.4801,3.4803,0,0,0,0,0,0,3.4628,3.4633,3.4673,3.4652,3.4657,3.4649,3.4663,3.4661,3.4668,3.4664,3.4662,3.4657,3.4662,3.4665,3.4701,3.4729,3.4673,3.4675,3.4796,3.4799,3.4802,3.4851,0,0,0,0,0,0,3.4626,3.4633,3.4651,3.4653,3.4658,3.4705,3.4665,3.4662,3.4672,3.4668,3.4672,3.4671,3.466,3.4698,3.4703,3.4731,3.4677,3.4793,3.4797,3.4801,3.4846,3.4855,3.4862,0,0,0,0,0,3.4624,3.4664,3.4652,3.4658,3.4681,3.4707,3.471,3.4697,3.4674,3.4693,3.4691,3.4671,3.4725,3.4702,3.4708,3.4737,3.4791,3.4796,3.48,3.4843,3.4853,3.4862,0,0,0,0,0,0,3.4665,3.4664,3.4651,3.4692,3.47,3.47,3.4723,3.4708,3.4722,3.4717,3.4701,3.4702,3.4741,3.4743,3.4716,3.4787,3.4755,3.4761,3.4785,3.4795,3.4802,3.4802,3.4679,0,0,0,0,0,3.4679,3.4699,3.4697,3.4734,3.4739,3.4731,3.4741,3.4731,3.4738,3.4741,3.4741,3.475,3.4769,3.4782,3.4799,3.4847,3.4848,3.487,3.4878,3.4884,3.489,3.4917,3.4927,3.4818,3.4818,3.4818,0,0,3.4707,3.4709,3.4723,3.4743,3.4747,3.477,3.4734,3.4758,3.4776,3.4745,3.4779,3.478,3.4788,3.4831,3.4849,3.4833,3.4921,3.489,3.4895,3.4897,3.4923,3.4933,3.4943,3.4821,3.482,3.482,0,0,3.4772,3.4775,3.4807,3.4813,3.4821,3.4815,3.4823,3.4826,3.4826,3.486,3.4838,3.4859,3.4891,3.4899,3.4907,3.4977,3.496,3.4983,3.5024,3.5051,3.506,3.5068,3.5094,3.5104,3.4989,3.4989,3.4989,0,3.4806,3.4839,3.4825,3.4852,3.4862,3.4836,3.487,3.4876,3.4889,3.4897,3.4879,3.4921,3.4925,3.497,3.4987,3.4994,3.5003,3.4982,3.506,3.5067,3.5074,3.5099,3.5109,3.4992,3.4991,3.4991,3.4991,0,3.4882,3.4906,3.4931,3.4945,3.4958,3.4988,3.4979,3.4994,3.4983,3.498,3.5017,3.502,3.5039,3.5049,3.5038,3.5093,3.5083,3.5062,3.5029,3.5088,3.5111,3.5121,3.4996,3.4995,3.4994,3.4993,0,0,3.4971,3.4979,3.4989,3.4996,3.5004,3.5022,3.5052,3.5071,3.5084,3.5095,3.512,3.515,3.5132,3.5141,3.5131,3.5155,3.5213,3.5132,3.5132,3.5148,3.5276,3.5292,3.5303,3.5201,3.5203,3.5204,3.5275,0,3.5036,3.5087,3.5076,3.5126,3.5149,3.5126,3.5152,3.5161,3.516,3.5179,3.5178,3.52,3.5173,3.5179,3.5201,3.5201,3.5238,3.5195,3.5226,3.5227,3.5225,3.5315,3.5331,3.5398,3.5284,3.5286,3.5287,0,3.5117,3.5132,3.5185,3.5192,3.5201,3.5225,3.5242,3.5261,3.5271,3.5268,3.528,3.5266,3.5297,3.5264,3.5307,3.5279,3.5291,3.5293,3.5295,3.5298,3.5261,3.5321,3.5419,3.5429,3.5301,3.53,3.5299,0,3.5179,3.5212,3.5249,3.5255,3.5264,3.5281,3.5285,3.5294,3.5306,3.5322,3.533,3.5349,3.5359,3.5375,3.5367,3.5343,3.5413,3.5378,3.5413,3.5413,3.5428,3.5428,3.5531,3.5435,3.5435,3.5435,3.5434,0,3.5253,3.5286,3.5277,3.5299,3.5337,3.5325,3.5363,3.5364,3.5372,3.5396,3.5377,3.5399,3.5387,3.5409,3.5404,3.5442,3.5446,3.5446,3.5444,3.5448,3.5449,3.5456,3.5452,3.5437,3.5437,3.5436,3.5436,0,3.5328,3.5322,3.5361,3.5366,3.5369,3.5396,3.5401,3.5423,3.5421,3.5451,3.5457,3.5454,3.5479,3.5473,3.55,3.5497,3.5545,3.5537,3.5542,3.554,3.5575,3.5573,3.5688,3.5703,3.5596,3.5597,3.5598,0,3.5375,3.5401,3.541,3.5424,3.543,3.5453,3.5467,3.5456,3.5471,3.5486,3.5506,3.553,3.5548,3.5589,3.559,3.5612,3.5604,3.5643,3.5607,3.5612,3.5607,3.5606,3.5609,3.5651,3.5652,3.5653,3.5654,0,3.5461,3.5458,3.5478,3.5498,3.5514,3.5529,3.5542,3.5555,3.5546,3.5564,3.559,3.5604,3.5633,3.5657,3.5677,3.5682,3.5667,3.5665,3.5674,3.5679,3.5681,3.5682,3.5562,3.5662,3.5661,3.5661,3.566,3.566,3.5525,3.5548,3.5558,3.5581,3.559,3.5604,3.5625,3.5626,3.5647,3.567,3.5663,3.5693,3.5704,3.573,3.5738,3.5762,3.5747,3.576,3.5764,3.5767,3.5773,3.5677,3.5765,3.5765,3.5764,3.5764,3.5764,0,3.5611,3.5617,3.5639,3.5658,3.5677,3.5662,3.5676,3.5693,3.572,3.5731,3.575,3.5781,3.5805,3.5808,3.5831,3.585,3.5844,3.5857,3.5856,3.5858,3.5783,3.5774,3.5861,3.5861,3.5861,3.5861,3.5861,3.5861,3.5658,3.5696,3.5695,3.5738,3.5743,3.5773,3.5783,3.5795,3.5805,3.584,3.586,3.5862,3.5871,3.5895,3.5917,3.5918,3.5928,3.5943,3.5942,3.5872,3.5862,3.5853,3.5844,3.5945,3.5945,3.6014,3.6015,3.6015]}]]